Location: Newark
(52.2090°N, 4.1550°W)
Time: 04:03:36
(UTC+00:00)

Explorer 7 - Pass Details

Date: 21 September 2019
Orbit: 485 x 680 km, 50.3° (Epoch: 17 October)

Event Time Altitude Azimuth Distance (km) Brightness Sun altitude
Rises 22:36:21 0° 220° (SW) 2,807 - -33.7°
Reaches altitude 10° 22:38:46 10° 209° (SSW) 1,944 - -33.9°
Maximum altitude 22:42:40 30° 148° (SSE) 1,123 - -34.2°
Drops below altitude 10° 22:46:47 10° 88° (E) 2,052 - -34.5°
Sets 22:49:24 0° 78° (ENE) 2,991 - -34.6°
